GW4172 Weather Reports


time (UTC)temp
C
wind
direction
speed
KPH
gust
KPH
rain 1hr
cm
rain 24hr
cm
rain mn
cm
humidity
%
barometer
mb
20260503030737 6 307 0.0 0.0 0.00 0.00 0.00 62 1010.1
20260503030233 6 299 0.0 1.6 0.00 0.00 0.00 59 1010.3
20260503025730 6 297 0.0 0.0 0.00 0.00 0.00 53 1010.4
20260503025228 6 306 0.0 0.0 0.00 0.00 0.00 57 1010.3
20260503024724 6 305 0.0 0.0 0.00 0.00 0.00 56 1010.4
20260503024222 6 316 1.6 3.2 0.00 0.00 0.00 55 1010.5
20260503023718 6 309 1.6 1.6 0.00 0.00 0.00 59 1010.3
20260503023215 6 308 1.6 1.6 0.00 0.00 0.00 59 1010.6
20260503022711 5 319 1.6 1.6 0.00 0.00 0.00 63 1010.6
20260503022211 5 306 1.6 1.6 0.00 0.00 0.00 63 1010.7
20260503021708 5 305 0.0 1.6 0.00 0.00 0.00 59 1010.4
20260503021204 5 298 0.0 1.6 0.00 0.00 0.00 60 1010.7
20260503020702 5 297 0.0 0.0 0.00 0.00 0.00 60 1010.4
20260503020159 5 298 0.0 0.0 0.00 0.00 0.00 61 1010.8
20260503015656 5 298 0.0 0.0 0.00 0.00 0.00 59 1010.5
20260503015153 5 292 0.0 0.0 0.00 0.00 0.00 58 1010.6
20260503014649 5 299 0.0 0.0 0.00 0.00 0.00 58 1010.7
20260503014147 5 302 0.0 0.0 0.00 0.00 0.00 59 1010.5
20260503013644 5 298 0.0 0.0 0.00 0.00 0.00 58 1010.6
20260503013142 5 292 0.0 0.0 0.00 0.00 0.00 57 1010.9
20260503012638 5 299 0.0 0.0 0.00 0.00 0.00 56 1010.6
20260503012135 6 306 0.0 0.0 0.00 0.00 0.00 56 1010.8
20260503011632 6 306 0.0 0.0 0.00 0.00 0.00 59 1010.8
20260503011129 6 297 0.0 0.0 0.00 0.00 0.00 57 1010.7
20260503010625 6 290 0.0 0.0 0.00 0.00 0.00 55 1011.0
20260503010123 6 289 0.0 0.0 0.00 0.00 0.00 56 1010.8
20260503005619 6 298 0.0 0.0 0.00 0.00 0.00 55 1010.8
20260503005117 6 298 0.0 0.0 0.00 0.00 0.00 54 1011.2
20260503004613 7 290 0.0 0.0 0.00 0.00 0.00 51 1011.2
20260503004112 7 290 0.0 0.0 0.00 0.00 0.00 50 1011.1
20260503003608 7 290 0.0 0.0 0.00 0.00 0.00 49 1011.1
20260503003105 7 290 0.0 0.0 0.00 0.00 0.00 48 1011.1
20260503002602 7 289 0.0 0.0 0.00 0.00 0.00 48 1011.2
20260503002059 7 281 0.0 0.0 0.00 0.00 0.00 50 1011.5
20260503001555 7 295 0.0 0.0 0.00 0.00 0.00 48 1011.4
20260503001052 7 281 0.0 0.0 0.00 0.00 0.00 47 1011.3
20260503000550 8 166 3.2 3.2 0.00 0.00 0.00 46 1011.3
20260503000047 8 274 0.0 0.0 0.00 0.00 0.00 48 1011.5
20260502235543 8 262 0.0 0.0 0.00 0.00 0.00 46 1011.6
20260502235041 8 288 0.0 0.0 0.00 0.00 0.00 47 1011.7
20260502234537 8 295 0.0 0.0 0.00 0.00 0.00 46 1011.7
20260502234035 8 283 0.0 0.0 0.00 0.00 0.00 48 1011.7
20260502233529 8 285 0.0 0.0 0.00 0.00 0.00 45 1011.9
20260502233027 8 234 1.6 1.6 0.00 0.00 0.00 47 1011.8
20260502232523 8 297 0.0 0.0 0.00 0.00 0.00 47 1011.9
20260502232020 8 299 0.0 0.0 0.00 0.00 0.00 45 1011.9
20260502231517 8 279 0.0 0.0 0.00 0.00 0.00 46 1011.9
20260502231015 8 282 3.2 3.2 0.00 0.00 0.00 44 1012.1
20260502230513 8 157 4.8 4.8 0.00 0.00 0.00 45 1011.8
20260502230011 8 283 0.0 1.6 0.00 0.00 0.00 45 1011.9
20260502225511 8 222 1.6 3.2 0.00 0.00 0.00 45 1012.2
20260502225009 9 287 0.0 0.0 0.00 0.00 0.00 46 1012.3
20260502224505 9 262 0.0 1.6 0.00 0.00 0.00 46 1012.2
20260502224002 10 256 1.6 1.6 0.00 0.00 0.00 44 1012.1
20260502223500 10 290 0.0 0.0 0.00 0.00 0.00 45 1012.5
20260502222958 10 269 0.0 1.6 0.00 0.00 0.00 45 1012.5
20260502222455 8 254 1.6 1.6 0.00 0.00 0.00 47 1012.4
20260502221950 9 179 3.2 3.2 0.00 0.00 0.00 46 1012.6
20260502221447 8 148 1.6 3.2 0.00 0.00 0.00 48 1012.7
20260502220944 9 282 0.0 1.6 0.00 0.00 0.00 47 1012.7
20260502220440 8 176 1.6 3.2 0.00 0.00 0.00 47 1012.8
20260502215937 9 173 4.8 4.8 0.00 0.00 0.00 47 1012.8
20260502215434 10 135 6.4 8.0 0.00 0.00 0.00 46 1012.8
20260502214931 10 204 1.6 1.6 0.00 0.00 0.00 45 1012.9
20260502214428 10 240 1.6 1.6 0.00 0.00 0.00 45 1012.8
20260502213925 10 251 1.6 1.6 0.00 0.00 0.00 47 1012.8
20260502213421 9 292 0.0 1.6 0.00 0.00 0.00 48 1013.3
20260502212920 10 293 1.6 3.2 0.00 0.00 0.00 47 1013.2
20260502212419 10 130 1.6 3.2 0.00 0.00 0.00 48 1013.2
20260502211916 10 240 1.6 1.6 0.00 0.00 0.00 47 1013.1
20260502211411 10 167 1.6 3.2 0.00 0.00 0.00 47 1013.2
20260502210909 10 244 1.6 3.2 0.00 0.00 0.00 48 1013.4
20260502210405 9 217 4.8 4.8 0.00 0.00 0.00 47 1013.3
20260502205903 10 286 1.6 1.6 0.00 0.00 0.00 49 1013.5
20260502205358 8 278 1.6 1.6 0.00 0.00 0.00 53 1013.6
20260502204856 9 174 3.2 3.2 0.00 0.00 0.00 52 1013.5
20260502204353 8 291 3.2 4.8 0.00 0.00 0.00 54 1013.6
20260502203850 8 288 3.2 4.8 0.00 0.00 0.00 57 1013.9
20260502203348 9 230 1.6 1.6 0.00 0.00 0.00 54 1013.6
20260502202843 9 260 3.2 3.2 0.00 0.00 0.00 52 1014.0
20260502202341 8 177 6.4 8.0 0.00 0.00 0.00 55 1013.8
20260502201839 8 182 1.6 3.2 0.00 0.00 0.00 52 1013.7
20260502201334 8 278 1.6 1.6 0.00 0.00 0.00 53 1013.9
20260502200831 8 141 6.4 8.0 0.00 0.00 0.00 55 1014.3
20260502200327 8 193 1.6 3.2 0.00 0.00 0.00 58 1014.1
20260502195825 8 192 3.2 3.2 0.00 0.00 0.00 58 1014.3
20260502195321 8 146 8.0 9.7 0.00 0.00 0.00 57 1014.3
20260502194818 7 178 4.8 4.8 0.00 0.00 0.00 59 1014.3
20260502194315 7 248 3.2 3.2 0.00 0.00 0.00 59 1014.4
20260502193811 7 173 6.4 8.0 0.00 0.00 0.00 60 1014.4
20260502193308 8 132 3.2 9.7 0.00 0.00 0.00 59 1014.5
20260502192803 8 222 1.6 1.6 0.00 0.00 0.00 58 1014.7
20260502192304 8 179 3.2 3.2 0.00 0.00 0.00 59 1014.6
20260502191758 8 264 1.6 3.2 0.00 0.00 0.00 58 1014.9
20260502191256 7 143 4.8 8.0 0.00 0.00 0.00 60 1014.9
20260502190753 7 176 6.4 8.0 0.00 0.00 0.00 58 1014.9
20260502190250 7 63 9.7 14.5 0.00 0.00 0.00 58 1014.9
20260502185745 8 154 12.9 14.5 0.00 0.00 0.00 56 1014.9
20260502185241 8 295 3.2 3.2 0.00 0.00 0.00 55 1015.0
20260502184738 8 296 3.2 4.8 0.00 0.00 0.00 53 1015.1
20260502184234 8 218 3.2 4.8 0.00 0.00 0.00 57 1015.1
20260502183731 8 179 3.2 3.2 0.00 0.00 0.00 53 1015.2
20260502183226 9 284 3.2 3.2 0.00 0.00 0.00 53 1015.2
20260502182722 8 279 1.6 3.2 0.00 0.00 0.00 52 1015.5
20260502182217 8 266 3.2 3.2 0.00 0.00 0.00 51 1015.4
20260502181714 7 328 1.6 3.2 0.00 0.00 0.00 61 1015.5
20260502181209 8 111 6.4 9.7 0.00 0.00 0.00 59 1015.4
20260502180705 7 172 3.2 4.8 0.00 0.00 0.00 60 1015.6
20260502180202 7 267 1.6 3.2 0.00 0.00 0.00 61 1015.7
20260502170120 7 117 4.8 4.8 0.00 0.00 0.00 60 1016.4
20260502164107 7 217 8.0 11.3 0.00 0.00 0.00 62 1016.7
20260502163603 6 197 1.6 1.6 0.00 0.00 0.00 60 1016.7
20260502163100 7 178 3.2 3.2 0.00 0.00 0.00 64 1016.9
20260502162556 6 264 1.6 3.2 0.00 0.00 0.00 65 1016.8
20260502162054 6 210 3.2 3.2 0.00 0.00 0.00 63 1016.8
20260502161550 7 114 8.0 9.7 0.00 0.00 0.00 63 1016.7
20260502161048 6 143 8.0 9.7 0.00 0.00 0.00 62 1017.1
20260502160546 6 138 3.2 4.8 0.00 0.00 0.00 57 1016.8
20260502151959 7 120 3.2 4.8 0.00 0.00 0.00 56 1017.5
20260502151455 7 231 3.2 3.2 0.00 0.00 0.00 54 1017.5
20260502150953 7 144 8.0 9.7 0.00 0.00 0.00 55 1017.7
20260502150450 6 277 1.6 3.2 0.00 0.00 0.00 57 1017.4
20260502130336 4 171 1.6 1.6 0.00 0.00 0.00 65 1018.4
20260502123318 1 310 0.0 0.0 0.00 0.00 0.00 79 1018.4
20260502122815 1 310 0.0 0.0 0.00 0.00 0.00 81 1018.7
20260502122310 0 310 0.0 1.6 0.00 0.00 0.00 83 1018.5
20260502121809 0 310 1.6 1.6 0.00 0.00 0.00 85 1018.4
20260502121306 0 310 1.6 1.6 0.00 0.00 0.00 86 1018.7
20260502120803 -1 310 1.6 1.6 0.00 0.00 0.00 87 1018.6
20260502120300 -1 310 1.6 1.6 0.00 0.00 0.00 86 1018.7
20260502115757 -1 310 1.6 1.6 0.00 0.00 0.00 87 1018.7
20260502115254 -2 302 0.0 1.6 0.00 0.00 0.00 89 1018.5
20260502114750 -2 313 1.6 1.6 0.00 0.00 0.00 89 1018.7
20260502114247 -2 311 1.6 1.6 0.00 0.00 0.00 90 1018.7
20260502113744 -2 311 1.6 1.6 0.00 0.00 0.00 90 1018.7
20260502113242 -2 314 1.6 1.6 0.00 0.00 0.00 90 1018.7
20260502112740 -2 316 1.6 1.6 0.00 0.00 0.00 90 1018.6
20260502112237 -3 317 1.6 1.6 0.00 0.00 0.00 90 1018.7
20260502111734 -3 316 1.6 1.6 0.00 0.00 0.00 91 1018.7
20260502111232 -3 313 1.6 1.6 0.00 0.00 0.00 90 1018.5
20260502110729 -3 317 1.6 1.6 0.00 0.00 0.00 90 1018.6
20260502110227 -3 319 1.6 3.2 0.00 0.00 0.00 90 1018.6
20260502105725 -3 315 1.6 1.6 0.00 0.00 0.00 91 1018.6
20260502105221 -3 317 1.6 1.6 0.00 0.00 0.00 90 1018.5
20260502104718 -3 315 1.6 1.6 0.00 0.00 0.00 90 1018.7
20260502104216 -3 314 1.6 1.6 0.00 0.00 0.00 90 1018.5
20260502103713 -3 310 1.6 1.6 0.00 0.00 0.00 90 1018.7
20260502103211 -3 307 1.6 1.6 0.00 0.00 0.00 90 1018.6
20260502102707 -3 315 1.6 1.6 0.00 0.00 0.00 90 1018.7
20260502102204 -3 315 1.6 1.6 0.00 0.00 0.00 90 1018.5
20260502101702 -3 320 1.6 1.6 0.00 0.00 0.00 91 1018.6
20260502101200 -3 315 1.6 1.6 0.00 0.00 0.00 91 1018.8
20260502100658 -3 313 1.6 1.6 0.00 0.00 0.00 91 1018.6
20260502100156 -3 315 1.6 1.6 0.00 0.00 0.00 91 1018.7
20260502091131 -3 310 1.6 1.6 0.00 0.00 0.00 89 1018.8
20260502090627 -3 313 1.6 1.6 0.00 0.00 0.00 89 1018.6
20260502090125 -3 314 1.6 1.6 0.00 0.00 0.00 89 1019.1
20260502071522 -2 307 1.6 1.6 0.00 0.00 0.00 87 1019.5
20260502071020 -2 313 1.6 1.6 0.00 0.00 0.00 88 1019.3
20260502070518 -2 310 1.6 1.6 0.00 0.00 0.00 87 1019.6
20260502070016 -2 312 1.6 1.6 0.00 0.00 0.00 88 1019.5
20260502065514 -2 302 0.0 1.6 0.00 0.00 0.00 87 1019.7
20260502065011 -2 309 1.6 1.6 0.00 0.00 0.00 88 1019.6
20260502064510 -2 312 0.0 1.6 0.00 0.00 0.00 89 1019.6
20260502064006 -2 314 1.6 1.6 0.00 0.00 0.00 88 1019.6
20260502063504 -2 309 1.6 1.6 0.00 0.00 0.00 89 1019.9
20260502063002 -2 313 1.6 1.6 0.00 0.00 0.00 89 1019.6
20260502062458 -2 308 0.0 1.6 0.00 0.00 0.00 88 1019.6
20260502061957 -2 299 0.0 1.6 0.00 0.00 0.00 88 1019.7
20260502061455 -2 288 1.6 1.6 0.00 0.00 0.00 88 1019.8
20260502060950 -2 290 0.0 1.6 0.00 0.00 0.00 89 1019.9
20260502060446 -2 304 1.6 1.6 0.00 0.00 0.00 89 1019.8
20260502055943 -2 308 0.0 1.6 0.00 0.00 0.00 88 1019.8
20260502055440 -2 304 0.0 0.0 0.00 0.00 0.00 87 1019.7
20260502054935 -2 304 1.6 1.6 0.00 0.00 0.00 88 1019.9
20260502054433 -2 315 0.0 1.6 0.00 0.00 0.00 88 1019.7
20260502053930 -2 307 0.0 1.6 0.00 0.00 0.00 86 1019.7
20260502053426 -2 302 0.0 1.6 0.00 0.00 0.00 86 1019.9
20260502052924 -2 301 0.0 0.0 0.00 0.00 0.00 85 1019.9
20260502052422 -2 304 0.0 0.0 0.00 0.00 0.00 85 1019.8
20260502051920 -2 301 1.6 1.6 0.00 0.00 0.00 83 1019.7
20260502051418 -2 316 1.6 1.6 0.00 0.00 0.00 87 1019.9
20260502050915 -2 320 1.6 1.6 0.00 0.00 0.00 86 1019.9
20260502050411 -2 310 0.0 0.0 0.00 0.00 0.00 86 1019.8
20260502045909 -2 308 0.0 0.0 0.00 0.00 0.00 86 1019.6
20260502045405 -2 297 0.0 0.0 0.00 0.00 0.00 84 1019.7
20260502044902 -2 318 1.6 1.6 0.00 0.00 0.00 83 1020.0
20260502044358 -1 316 1.6 1.6 0.00 0.00 0.00 85 1019.8
20260502043855 -1 304 0.0 0.0 0.00 0.00 0.00 84 1019.7
20260502043353 -1 303 1.6 1.6 0.00 0.00 0.00 81 1019.8
20260502042852 -1 318 1.6 1.6 0.00 0.00 0.00 82 1019.7
20260502042349 -1 300 1.6 1.6 0.00 0.00 0.00 81 1019.8
20260502041847 -1 306 1.6 1.6 0.00 0.00 0.00 79 1019.7
20260502041344 -1 309 1.6 3.2 0.00 0.00 0.00 81 1019.7
20260502040841 -1 301 0.0 1.6 0.00 0.00 0.00 82 1019.8
20260502040338 -1 295 0.0 1.6 0.00 0.00 0.00 78 1019.7
20260502035834 0 303 0.0 1.6 0.00 0.00 0.00 78 1019.9
20260502035331 0 295 1.6 1.6 0.00 0.00 0.00 74 1019.8
20260502034828 0 307 1.6 1.6 0.00 0.00 0.00 78 1019.7
20260502034327 -1 310 1.6 1.6 0.00 0.00 0.00 82 1019.8
20260502033824 0 317 1.6 1.6 0.00 0.00 0.00 80 1019.8
20260502033322 0 306 0.0 0.0 0.00 0.00 0.00 76 1019.7
20260502032818 0 283 0.0 1.6 0.00 0.00 0.00 72 1019.4
20260502032314 0 313 1.6 1.6 0.00 0.00 0.00 74 1019.4
20260502031813 0 318 1.6 3.2 0.00 0.00 0.00 73 1019.3
20260502031310 0 309 3.2 3.2 0.00 0.00 0.00 73 1019.6